W4JCW Weather Reports


Display with metric or nautical units.
time (UTC)temp
F
wind
direction
speed
MPH
gust
MPH
rain 1hr
in
rain 24hr
in
rain mn
in
humidity
%
barometer
mb
20260506090911 59 141 0.0 2.0 0.00 0.00 0.00 88 1013.1
20260506090409 59 243 0.0 1.0 0.00 0.00 0.00 87 1013.3
20260506085906 59 122 0.0 2.0 0.00 0.00 0.00 87 1013.3
20260506085402 59 105 1.0 2.0 0.00 0.00 0.00 87 1013.6
20260506084859 59 86 1.0 2.0 0.00 0.00 0.00 86 1013.7
20260506084355 59 93 0.0 2.0 0.00 0.00 0.00 86 1013.5
20260506083852 59 123 1.0 2.0 0.00 0.00 0.00 85 1013.6
20260506083350 60 111 1.0 2.0 0.00 0.00 0.00 85 1013.7
20260506082847 60 104 0.0 1.0 0.00 0.00 0.00 85 1013.7
20260506082344 60 138 2.0 2.0 0.00 0.00 0.00 84 1013.6
20260506081839 60 82 1.0 2.0 0.00 0.00 0.00 84 1014.0
20260506081338 60 107 1.0 2.0 0.00 0.00 0.00 84 1013.9
20260506080835 60 97 2.0 2.0 0.00 0.00 0.00 83 1013.7
20260506080331 60 105 0.0 1.0 0.00 0.00 0.00 83 1013.5
20260506073316 61 95 0.0 2.0 0.00 0.00 0.00 82 1013.7
20260506072812 61 93 1.0 2.0 0.00 0.00 0.00 82 1013.4
20260506072310 61 89 0.0 2.0 0.00 0.00 0.00 82 1013.5
20260506071807 61 66 0.0 2.0 0.00 0.00 0.00 82 1013.7
20260506071305 61 89 0.0 1.0 0.00 0.00 0.00 82 1013.2
20260506070802 61 113 0.0 2.0 0.00 0.00 0.00 82 1013.5
20260506070259 61 122 0.0 1.0 0.00 0.00 0.00 82 1013.3
20260506062236 61 103 1.0 1.0 0.00 0.00 0.00 80 1013.7
20260506061732 61 44 0.0 2.0 0.00 0.00 0.00 80 1013.9
20260506061230 62 103 0.0 2.0 0.00 0.00 0.00 80 1013.9
20260506060728 62 131 1.0 2.0 0.00 0.00 0.00 79 1014.0
20260506060225 62 128 1.0 1.0 0.00 0.00 0.00 79 1014.2
20260506051157 64 152 1.0 2.0 0.00 0.00 0.00 74 1014.3
20260506050655 64 130 0.0 1.0 0.00 0.00 0.00 74 1014.1
20260506050152 64 164 1.0 2.0 0.00 0.00 0.00 73 1014.1
20260506044643 65 218 0.0 2.0 0.00 0.00 0.00 73 1014.1
20260506044139 65 264 2.0 4.0 0.00 0.00 0.00 72 1014.3
20260506043637 65 245 0.0 2.0 0.00 0.00 0.00 72 1014.1
20260506043135 65 155 2.0 2.0 0.00 0.00 0.00 71 1014.3
20260506042633 65 161 0.0 1.0 0.00 0.00 0.00 71 1014.2
20260506042131 66 168 1.0 2.0 0.00 0.00 0.00 71 1014.2
20260506041630 66 308 0.0 2.0 0.00 0.00 0.00 70 1014.4
20260506041126 66 215 1.0 4.0 0.00 0.00 0.00 70 1014.3
20260506040624 66 264 0.0 2.0 0.00 0.00 0.00 70 1014.5
20260506040120 66 206 0.0 2.0 0.00 0.00 0.00 70 1014.3
20260506035617 66 135 0.0 1.0 0.00 0.00 0.00 69 1014.5
20260506035113 66 221 1.0 2.0 0.00 0.00 0.00 69 1014.5
20260506034611 66 239 0.0 3.0 0.00 0.00 0.00 69 1014.5
20260506034108 66 202 2.0 3.0 0.00 0.00 0.00 68 1014.4
20260506033605 66 180 0.0 2.0 0.00 0.00 0.00 68 1014.3
20260506033102 66 161 1.0 3.0 0.00 0.00 0.00 68 1014.1
20260506032559 67 274 1.0 1.0 0.00 0.00 0.00 67 1014.1
20260506032056 67 262 1.0 2.0 0.00 0.00 0.00 67 1013.9
20260506031554 67 259 0.0 1.0 0.00 0.00 0.00 66 1014.1
20260506031050 67 166 0.0 2.0 0.00 0.00 0.00 66 1014.1
20260506030549 67 220 2.0 2.0 0.00 0.00 0.00 65 1014.1
20260506030045 68 235 0.0 2.0 0.00 0.00 0.00 64 1014.1
20260506025542 68 184 1.0 3.0 0.00 0.00 0.00 63 1013.9
20260506025038 68 216 0.0 4.0 0.00 0.00 0.00 63 1014.1
20260506024536 68 205 2.0 2.0 0.00 0.00 0.00 62 1014.4
20260506024032 68 227 0.0 3.0 0.00 0.00 0.00 62 1014.1
20260506023528 68 191 1.0 3.0 0.00 0.00 0.00 62 1014.3
20260506023026 68 322 0.0 2.0 0.00 0.00 0.00 62 1014.5
20260506022523 68 170 1.0 2.0 0.00 0.00 0.00 61 1014.3
20260506022020 69 103 0.0 2.0 0.00 0.00 0.00 61 1014.4
20260506021518 69 180 2.0 2.0 0.00 0.00 0.00 61 1014.4
20260506021015 69 224 0.0 4.0 0.00 0.00 0.00 60 1014.1
20260506020512 69 215 1.0 2.0 0.00 0.00 0.00 60 1014.4
20260506020010 70 220 2.0 2.0 0.00 0.00 0.00 59 1014.1
20260506015507 70 137 2.0 2.0 0.00 0.00 0.00 59 1014.0
20260506015004 70 211 1.0 3.0 0.00 0.00 0.00 59 1013.9
20260506014501 70 224 0.0 3.0 0.00 0.00 0.00 58 1013.8
20260506013957 70 226 0.0 2.0 0.00 0.00 0.00 58 1013.7
20260506013455 71 226 0.0 3.0 0.00 0.00 0.00 58 1013.8
20260506012951 71 264 1.0 2.0 0.00 0.00 0.00 58 1013.5
20260506012448 71 166 1.0 2.0 0.00 0.00 0.00 58 1013.8
20260506011945 71 302 1.0 2.0 0.00 0.00 0.00 57 1013.4
20260506011442 72 219 0.0 2.0 0.00 0.00 0.00 57 1013.4
20260506010939 72 228 2.0 5.0 0.00 0.00 0.00 56 1013.0
20260506010438 72 202 2.0 2.0 0.00 0.00 0.00 56 1013.1
20260506005933 72 227 2.0 3.0 0.00 0.00 0.00 55 1013.0
20260506005432 73 230 2.0 3.0 0.00 0.00 0.00 55 1012.8
20260506004926 73 225 2.0 3.0 0.00 0.00 0.00 55 1012.8
20260506004425 73 218 3.0 3.0 0.00 0.00 0.00 54 1012.7
20260506003920 73 201 2.0 3.0 0.00 0.00 0.00 54 1012.7
20260506003417 74 194 0.0 3.0 0.00 0.00 0.00 53 1012.5
20260506002914 74 238 2.0 5.0 0.00 0.00 0.00 53 1012.6
20260506002410 74 60 0.0 3.0 0.00 0.00 0.00 52 1012.6
20260506001905 74 227 2.0 2.0 0.00 0.00 0.00 52 1012.6
20260506001402 75 216 0.0 3.0 0.00 0.00 0.00 51 1012.5
20260506000900 75 191 1.0 3.0 0.00 0.00 0.00 50 1012.5
20260506000357 75 250 1.0 2.0 0.00 0.00 0.00 49 1012.3
20260505235854 75 269 0.0 1.0 0.00 0.00 0.00 48 1012.4
20260505235351 76 204 0.0 1.0 0.00 0.00 0.00 47 1012.3
20260505234848 76 217 0.0 1.0 0.00 0.00 0.00 46 1012.4
20260505234346 76 180 0.0 3.0 0.00 0.00 0.00 46 1012.3
20260505233842 76 219 0.0 1.0 0.00 0.00 0.00 45 1012.6
20260505233341 77 192 1.0 2.0 0.00 0.00 0.00 45 1012.3
20260505232838 77 225 2.0 2.0 0.00 0.00 0.00 44 1012.4
20260505232336 77 187 0.0 2.0 0.00 0.00 0.00 44 1012.6
20260505231832 77 246 0.0 0.0 0.00 0.00 0.00 43 1012.4
20260505231330 77 224 0.0 3.0 0.00 0.00 0.00 43 1012.4
20260505230828 77 185 1.0 2.0 0.00 0.00 0.00 43 1012.5
20260505230324 78 240 1.0 3.0 0.00 0.00 0.00 43 1012.5
20260505225821 78 249 2.0 2.0 0.00 0.00 0.00 42 1012.4
20260505225318 78 181 2.0 3.0 0.00 0.00 0.00 43 1012.3
20260505224813 78 212 2.0 4.0 0.00 0.00 0.00 43 1012.5
20260505224312 79 248 0.0 2.0 0.00 0.00 0.00 42 1012.3
20260505223808 79 242 0.0 2.0 0.00 0.00 0.00 42 1012.3
20260505223306 79 218 2.0 3.0 0.00 0.00 0.00 42 1012.3
20260505222801 80 269 0.0 2.0 0.00 0.00 0.00 41 1012.2
20260505222257 80 249 2.0 3.0 0.00 0.00 0.00 41 1012.5
20260505221755 80 259 2.0 3.0 0.00 0.00 0.00 41 1012.3
20260505221251 80 254 2.0 2.0 0.00 0.00 0.00 41 1012.6
20260505220748 80 240 2.0 2.0 0.00 0.00 0.00 41 1012.7
20260505220245 80 258 1.0 3.0 0.00 0.00 0.00 41 1012.6
20260505215743 80 198 1.0 6.0 0.00 0.00 0.00 42 1012.6
20260505215241 80 223 2.0 3.0 0.00 0.00 0.00 41 1012.6
20260505214739 80 203 4.0 4.0 0.00 0.00 0.00 41 1012.5
20260505214236 80 196 1.0 2.0 0.00 0.00 0.00 41 1012.6
20260505213733 80 228 2.0 3.0 0.00 0.00 0.00 39 1012.6
20260505213230 80 231 2.0 2.0 0.00 0.00 0.00 39 1012.5
20260505212726 80 311 2.0 3.0 0.00 0.00 0.00 40 1012.8
20260505212224 80 266 1.0 2.0 0.00 0.00 0.00 41 1012.9
20260505211720 80 252 2.0 3.0 0.00 0.00 0.00 39 1012.9
20260505211218 81 290 1.0 6.0 0.00 0.00 0.00 39 1012.9
20260505210714 82 316 1.0 2.0 0.00 0.00 0.00 39 1012.8
20260505210211 82 1 2.0 3.0 0.00 0.00 0.00 39 1012.9
20260505205708 82 220 1.0 3.0 0.00 0.00 0.00 38 1012.7
20260505205207 82 247 2.0 5.0 0.00 0.00 0.00 37 1012.9
20260505204702 82 212 4.0 5.0 0.00 0.00 0.00 37 1013.2
20260505204201 82 242 4.0 5.0 0.00 0.00 0.00 37 1013.1
20260505203658 82 236 3.0 4.0 0.00 0.00 0.00 38 1012.9
20260505203154 82 169 2.0 4.0 0.00 0.00 0.00 38 1013.2
20260505202650 80 225 2.0 3.0 0.00 0.00 0.00 39 1013.1
20260505202146 80 236 5.0 8.0 0.00 0.00 0.00 38 1013.1
20260505201643 81 235 1.0 3.0 0.00 0.00 0.00 38 1013.1
20260505201141 81 213 2.0 4.0 0.00 0.00 0.00 37 1013.2
20260505200639 82 295 2.0 3.0 0.00 0.00 0.00 39 1013.0
20260505200135 82 265 2.0 3.0 0.00 0.00 0.00 37 1013.2
20260505195632 82 287 2.0 4.0 0.00 0.00 0.00 37 1013.2
20260505195129 82 148 2.0 3.0 0.00 0.00 0.00 37 1013.6
20260505194626 81 126 2.0 3.0 0.00 0.00 0.00 39 1013.6
20260505194122 82 193 3.0 7.0 0.00 0.00 0.00 39 1013.5
20260505193619 82 198 3.0 3.0 0.00 0.00 0.00 40 1013.8
20260505193116 81 200 2.0 3.0 0.00 0.00 0.00 40 1013.6
20260505192615 81 210 3.0 5.0 0.00 0.00 0.00 39 1013.8
20260505192111 81 227 3.0 5.0 0.00 0.00 0.00 40 1013.8
20260505191610 82 235 5.0 7.0 0.00 0.00 0.00 39 1014.0
20260505191107 82 255 3.0 4.0 0.00 0.00 0.00 39 1014.0
20260505190602 83 1 1.0 2.0 0.00 0.00 0.00 39 1014.4
20260505190058 83 210 2.0 3.0 0.00 0.00 0.00 40 1014.3
20260505185555 82 342 2.0 3.0 0.00 0.00 0.00 40 1014.5
20260505185051 82 226 3.0 6.0 0.00 0.00 0.00 40 1014.6
20260505184548 82 205 3.0 3.0 0.00 0.00 0.00 40 1014.6
20260505184045 81 261 1.0 2.0 0.00 0.00 0.00 42 1014.5
20260505183542 81 204 3.0 5.0 0.00 0.00 0.00 41 1014.7
20260505183039 82 283 1.0 3.0 0.00 0.00 0.00 41 1014.7
20260505182535 81 202 2.0 3.0 0.00 0.00 0.00 41 1014.8
20260505182032 82 312 1.0 3.0 0.00 0.00 0.00 41 1014.5
20260505181529 81 192 0.0 3.0 0.00 0.00 0.00 43 1014.7
20260505181026 80 320 0.0 4.0 0.00 0.00 0.00 45 1014.6
20260505180522 79 25 1.0 2.0 0.00 0.00 0.00 44 1014.5
20260505180020 80 248 2.0 5.0 0.00 0.00 0.00 43 1014.5
20260505175514 81 260 0.0 3.0 0.00 0.00 0.00 43 1014.6
20260505175012 80 347 1.0 3.0 0.00 0.00 0.00 43 1014.8
20260505174509 80 231 5.0 5.0 0.00 0.00 0.00 44 1014.4
20260505174005 80 219 3.0 5.0 0.00 0.00 0.00 44 1014.7
20260505173501 79 219 2.0 3.0 0.00 0.00 0.00 44 1014.9
20260505172958 78 159 0.0 5.0 0.00 0.00 0.00 45 1014.9
20260505172457 78 51 1.0 2.0 0.00 0.00 0.00 49 1014.8
20260505171957 78 210 2.0 3.0 0.00 0.00 0.00 49 1015.0
20260505171453 78 320 2.0 2.0 0.00 0.00 0.00 48 1015.1
20260505170950 79 204 3.0 5.0 0.00 0.00 0.00 46 1015.2
20260505170447 78 228 0.0 3.0 0.00 0.00 0.00 48 1015.2
20260505165942 78 37 2.0 4.0 0.00 0.00 0.00 47 1015.2
20260505165438 78 321 2.0 3.0 0.00 0.00 0.00 48 1015.4
20260505164934 79 23 3.0 3.0 0.00 0.00 0.00 46 1015.3
20260505164431 79 311 0.0 3.0 0.00 0.00 0.00 46 1015.4
20260505163928 79 22 0.0 2.0 0.00 0.00 0.00 47 1015.5
20260505163427 78 246 2.0 5.0 0.00 0.00 0.00 47 1015.4
20260505162926 78 176 2.0 6.0 0.00 0.00 0.00 47 1015.8
20260505162421 78 21 3.0 3.0 0.00 0.00 0.00 48 1015.8
20260505161918 78 249 2.0 4.0 0.00 0.00 0.00 50 1016.1
20260505161415 78 197 2.0 5.0 0.00 0.00 0.00 49 1016.0
20260505160912 78 341 0.0 3.0 0.00 0.00 0.00 49 1016.0
20260505160410 78 327 2.0 5.0 0.00 0.00 0.00 49 1016.1
20260505153349 77 354 0.0 4.0 0.00 0.00 0.00 53 1016.1
20260505152846 77 172 2.0 2.0 0.00 0.00 0.00 54 1016.3
20260505152343 76 210 0.0 2.0 0.00 0.00 0.00 54 1016.0
20260505151837 75 260 1.0 3.0 0.00 0.00 0.00 55 1016.1
20260505151334 75 11 2.0 4.0 0.00 0.00 0.00 56 1015.8
20260505150831 75 321 1.0 3.0 0.00 0.00 0.00 56 1016.2
20260505150329 74 200 2.0 3.0 0.00 0.00 0.00 56 1016.1
20260505140252 71 221 0.0 2.0 0.00 0.00 0.00 65 1016.1
20260505130216 63 191 1.0 2.0 0.00 0.00 0.00 76 1016.1
20260505124706 62 67 1.0 3.0 0.00 0.00 0.00 76 1016.1
20260505124203 62 293 0.0 2.0 0.00 0.00 0.00 77 1016.0
20260505123659 61 112 0.0 1.0 0.00 0.00 0.00 79 1015.8
20260505123156 60 123 2.0 2.0 0.00 0.00 0.00 80 1015.7
20260505122652 59 89 0.0 2.0 0.00 0.00 0.00 82 1016.2
20260505122149 58 91 1.0 1.0 0.00 0.00 0.00 84 1016.0
20260505121646 58 116 0.0 2.0 0.00 0.00 0.00 85 1016.0
20260505121143 57 102 0.0 1.0 0.00 0.00 0.00 86 1015.7
20260505120639 57 79 2.0 2.0 0.00 0.00 0.00 87 1015.8
20260505120135 56 91 1.0 2.0 0.00 0.00 0.00 89 1015.7
20260505115629 56 131 0.0 2.0 0.00 0.00 0.00 90 1015.7
20260505115127 55 62 0.0 2.0 0.00 0.00 0.00 90 1015.8
20260505114624 55 83 0.0 2.0 0.00 0.00 0.00 91 1015.7
20260505114120 54 95 2.0 2.0 0.00 0.00 0.00 92 1015.6
20260505113617 54 111 1.0 2.0 0.00 0.00 0.00 92 1015.7
20260505113113 53 108 0.0 2.0 0.00 0.00 0.00 93 1015.8
20260505112610 53 110 1.0 2.0 0.00 0.00 0.00 94 1015.6
20260505112109 53 54 0.0 2.0 0.00 0.00 0.00 94 1015.8
20260505111608 53 70 1.0 2.0 0.00 0.00 0.00 94 1015.5
20260505111103 52 75 1.0 2.0 0.00 0.00 0.00 94 1015.6
20260505110600 52 89 0.0 2.0 0.00 0.00 0.00 94 1015.7
20260505102033 51 89 1.0 2.0 0.00 0.00 0.00 94 1015.1
20260505101531 51 99 1.0 2.0 0.00 0.00 0.00 94 1015.1
20260505101027 51 100 1.0 2.0 0.00 0.00 0.00 94 1014.9
20260505100524 51 89 2.0 2.0 0.00 0.00 0.00 94 1014.9
20260505100021 51 105 1.0 2.0 0.00 0.00 0.00 94 1014.8
20260505095517 51 102 1.0 1.0 0.00 0.00 0.00 94 1014.9
20260505095014 51 92 2.0 2.0 0.00 0.00 0.00 94 1014.9
20260505094510 51 85 2.0 2.0 0.00 0.00 0.00 93 1014.6
20260505094007 51 124 2.0 2.0 0.00 0.00 0.00 93 1014.8
20260505093503 51 117 1.0 3.0 0.00 0.00 0.00 93 1014.8
20260505093000 51 116 0.0 1.0 0.00 0.00 0.00 93 1014.7
20260505092458 51 78 1.0 2.0 0.00 0.00 0.00 93 1015.0
20260505091955 51 97 0.0 2.0 0.00 0.00 0.00 93 1014.7
20260505091453 51 89 1.0 2.0 0.00 0.00 0.00 92 1014.8